Ithaca, NY

1:51 PM EDT on August 19, 2017 (GMT -0400)
Tompkins County

Weather History for KITH - January, 2013

Change the Weather History Date:

Wednesday, January 30, 2013

  Actual Average Record
Temperature  
Mean Temperature 54 °F -  
Max Temperature 59 °F 30 °F 59 °F (2013)
Min Temperature 48 °F 12 °F -11 °F (1965)
Degree Days  
Heating Degree Days 12    
Growing Degree Days 4 (Base 50)    
Moisture  
Dew Point 49 °F    
Average Humidity 86    
Maximum Humidity 93    
Minimum Humidity 80    
Precipitation  
Precipitation 0.19 in - - ()
Sea Level Pressure  
Sea Level Pressure 29.53 in    
Wind  
Wind Speed 17 mph (SSE)    
Max Wind Speed 26 mph    
Max Gust Speed 32 mph    
Visibility 9 miles    
Events Rain    
Averages and records for this station are not official NWS values.
T = Trace of Precipitation, MM = Missing Value Source: NWS Daily Summary

Daily Weather History Graph

Daily Weather History Graph

Search for Another Location

Airport or City:

Trip Planner

Search our weather history database for the weather conditions in past years. The results will help you decide how hot, cold, wet, or windy it might be!

Date:

Astronomy

Jan. 30, 2013 Rise Set
Actual Time 7:21 AM EST 5:17 PM EST
Civil Twilight 6:51 AM EST 5:47 PM EST
Nautical Twilight 6:17 AM EST 6:21 PM EST
Astronomical Twilight 5:44 AM EST 6:54 PM EST
Moon 9:20 PM EST (1/30) 8:42 AM EST (1/30)
Length of Visible Light 10h 55m
Length of Day
9h 55m
Waning Gibbous, 88% of the Moon is Illuminated
Jan 30
Waning Gibbous
Feb 3
Last Quarter
Feb 10
New
Feb 17
First Quarter
Feb 25
Full

Hourly Weather History & Observations

Time (EST) Temp. Dew Point Humidity Pressure Visibility Wind Dir Wind Speed Gust Speed Precip Events Conditions
12:56 AM 50.0 °F 46.9 °F 89% 29.85 in 5.0 mi SSE 16.1 mph 21.9 mph N/A   Clear
1:56 AM 50.0 °F 45.9 °F 86% 29.81 in 7.0 mi SSE 17.3 mph 21.9 mph N/A   Clear
2:56 AM 48.9 °F 45.9 °F 89% 29.78 in 7.0 mi SSE 17.3 mph 24.2 mph N/A   Clear
3:56 AM 50.0 °F 45.9 °F 86% 29.75 in 8.0 mi SSE 15.0 mph 23.0 mph N/A   Clear
4:56 AM 50.0 °F 45.9 °F 86% 29.73 in 8.0 mi SSE 17.3 mph 26.5 mph N/A   Clear
5:56 AM 50.0 °F 45.9 °F 86% 29.69 in 9.0 mi South 18.4 mph - N/A   Clear
6:28 AM 48.2 °F 46.4 °F 93% 29.66 in 8.0 mi South 18.4 mph - N/A   Clear
6:56 AM 50.0 °F 45.9 °F 86% 29.65 in 8.0 mi SSE 16.1 mph 23.0 mph N/A   Clear
7:56 AM 50.0 °F 45.9 °F 86% 29.63 in 7.0 mi SSE 12.7 mph 19.6 mph N/A   Mostly Cloudy
8:56 AM 52.0 °F 47.8 °F 86% 29.60 in 7.0 mi SSE 17.3 mph 23.0 mph N/A   Mostly Cloudy
9:56 AM 54.9 °F 48.9 °F 80% 29.57 in 8.0 mi South 20.7 mph 25.3 mph N/A   Overcast
10:56 AM 56.8 °F 50.9 °F 80% 29.51 in 10.0 mi South 26.5 mph 32.2 mph N/A   Mostly Cloudy
11:56 AM 56.8 °F 50.9 °F 80% 29.49 in 10.0 mi South 18.4 mph 29.9 mph N/A   Overcast
12:56 PM 57.9 °F 52.0 °F 81% 29.47 in 10.0 mi South 20.7 mph 25.3 mph N/A   Overcast
1:56 PM 57.9 °F 52.9 °F 83% 29.47 in 10.0 mi South 15.0 mph - N/A   Overcast
2:56 PM 59.0 °F 52.9 °F 80% 29.44 in 10.0 mi South 13.8 mph - N/A   Overcast
3:56 PM 57.9 °F 52.0 °F 81% 29.45 in 10.0 mi South 15.0 mph 20.7 mph 0.00 in Rain Light Rain
4:56 PM 56.8 °F 52.0 °F 84% 29.43 in 10.0 mi South 15.0 mph 24.2 mph 0.00 in Rain Light Rain
5:56 PM 55.9 °F 52.0 °F 87% 29.41 in 10.0 mi South 20.7 mph 27.6 mph 0.00 in Rain Light Rain
6:56 PM 54.9 °F 50.9 °F 86% 29.40 in 10.0 mi South 20.7 mph 27.6 mph 0.00 in Rain Light Rain
7:56 PM 54.9 °F 50.9 °F 86% 29.36 in 10.0 mi South 18.4 mph 23.0 mph 0.01 in Rain Light Rain
8:56 PM 54.0 °F 50.9 °F 89% 29.34 in 10.0 mi SSE 16.1 mph 25.3 mph 0.01 in Rain Light Rain
9:56 PM 52.9 °F 50.9 °F 93% 29.29 in 10.0 mi SSE 15.0 mph 24.2 mph 0.01 in Rain Light Rain
10:56 PM 52.9 °F 50.9 °F 93% 29.22 in 10.0 mi SSE 18.4 mph 25.3 mph 0.07 in Rain Light Rain
11:56 PM 52.9 °F 50.0 °F 90% 29.16 in 9.0 mi SE 13.8 mph 19.6 mph 0.09 in Rain Rain